Weather History for Wittering, United Kingdom

Change the Weather History Date:

Sunday, January 20, 2013

  Actual Average Record
Temperature  
Mean Temperature 31 °F -  
Max Temperature 32 °F 43 °F 55 °F (2007)
Min Temperature 30 °F 34 °F 26 °F (2001)
Degree Days  
Heating Degree Days 34    
Moisture  
Dew Point 28 °F    
Average Humidity 90    
Maximum Humidity 100    
Minimum Humidity 76    
Precipitation  
Precipitation 0.01 in - - ()
Sea Level Pressure  
Sea Level Pressure 29.40 in    
Wind  
Wind Speed 10 mph ()    
Max Wind Speed 20 mph    
Max Gust Speed -    
Visibility 4.0 miles    
Events Snow    
Averages and records for this station are not official NWS values.
T = Trace of Precipitation, MM = Missing Value Source: Averaged Metar Reports

Daily Weather History Graph

Daily Weather History Graph

Search for Another Location

Airport:

Trip Planner

Search our weather history database for the weather conditions in past years. The results will help you decide how hot, cold, wet, or windy it might be!

Date:

Astronomy

Jan. 20, 2013 Rise Set
Actual Time 8:00 AM GMT 4:25 PM GMT
Civil Twilight 7:21 AM GMT 5:04 PM GMT
Nautical Twilight 6:38 AM GMT 5:47 PM GMT
Astronomical Twilight 5:58 AM GMT 6:28 PM GMT
Moon 11:22 AM GMT (1/20) 2:12 AM GMT (1/20)
Length of Visible Light 9h 43m
Length of Day
8h 25m
Waxing Gibbous, 64% of the Moon is Illuminated
Jan 20
Waxing Gibbous
Jan 27
Full
Feb 3
Last Quarter
Feb 10
New
Feb 17
First Quarter

Hourly Weather History & Observations

Time (GMT) Temp. Windchill Dew Point Humidity Pressure Visibility Wind Dir Wind Speed Gust Speed Precip Events Conditions
12:50 AM 30.2 °F 22.6 °F 24.8 °F 80% 29.50 in 6.2 mi ENE 8.1 mph - N/A   Overcast
1:50 AM 30.2 °F 23.4 °F 24.8 °F 80% 29.50 in 6.2 mi NE 6.9 mph - N/A   Overcast
2:50 AM 30 °F - 26 °F 78% 29.52 in 7 mi NNE 6.9 mph - -   Mostly Cloudy
2:50 AM 30.2 °F 23.4 °F 26.6 °F 86% 29.50 in 6.2 mi NNE 6.9 mph - N/A   Mostly Cloudy
3:50 AM 30.2 °F 21.3 °F 26.6 °F 86% 29.47 in 5.0 mi NE 10.4 mph - N/A   Haze
4:50 AM 30.2 °F 22.6 °F 28.4 °F 93% 29.47 in 5.6 mi NE 8.1 mph - N/A   Haze
5:50 AM 31 °F - 26 °F 76% 29.48 in 11 mi ENE 15.0 mph - -  
5:50 AM 30.2 °F 19.3 °F 26.6 °F 86% 29.44 in 6.2 mi ENE 15.0 mph - N/A   Mostly Cloudy
6:50 AM 30.2 °F 20.8 °F 26.6 °F 86% 29.44 in 6.2 mi ENE 11.5 mph - N/A   Overcast
7:50 AM 30.2 °F 20.8 °F 26.6 °F 86% 29.44 in 6.2 mi ENE 11.5 mph - N/A   Overcast
8:50 AM 31 °F - 27 °F 78% 29.48 in 11 mi ENE 12.7 mph - -   Mostly Cloudy
8:50 AM 30.2 °F 20.2 °F 26.6 °F 86% 29.44 in 6.2 mi ENE 12.7 mph - N/A   Scattered Clouds
9:50 AM 32.0 °F 22.5 °F 26.6 °F 80% 29.44 in 6.2 mi NE 12.7 mph - N/A   Overcast
10:50 AM 33.8 °F 23.5 °F 28.4 °F 81% 29.42 in 5.6 mi NE 16.1 mph - N/A Snow Snow Grains
11:50 AM 32 °F - 28 °F 80% 29.44 in 3 mi ENE 19.6 mph - - Snow Snow Grains
11:50 AM 32.0 °F 20.1 °F 28.4 °F 87% 29.42 in - ENE 19.6 mph - N/A Snow Snow Grains
12:50 PM 30.2 °F 18.1 °F 30.2 °F 100% 29.39 in 1.0 mi ENE 18.4 mph - N/A Snow Light Snow
1:50 PM 32.0 °F 21.6 °F 30.2 °F 93% 29.39 in 1.4 mi NE 15.0 mph - N/A Snow Light Snow
2:50 PM 31 °F - 30 °F 95% 29.40 in 0 mi ENE 13.8 mph - - Snow Snow
2:50 PM 30.2 °F 19.8 °F 30.2 °F 100% 29.39 in 0.5 mi ENE 13.8 mph - N/A Snow Snow
3:50 PM 32.0 °F 22.1 °F 30.2 °F 93% 29.36 in 1.8 mi NE 13.8 mph - N/A Snow Light Snow
4:50 PM 32.0 °F 21.2 °F 30.2 °F 93% 29.36 in 1.3 mi ENE 16.1 mph - N/A Snow Snow Grains
5:50 PM 32 °F - 31 °F 93% 29.37 in 1 mi NE 13.8 mph - - Snow Light Snow
5:50 PM 32.0 °F 22.1 °F 30.2 °F 93% 29.36 in 0.9 mi NE 13.8 mph - N/A Snow Light Snow
6:50 PM 32.0 °F 21.6 °F 30.2 °F 93% 29.33 in 1.4 mi NE 15.0 mph - N/A Snow Snow Grains
7:50 PM 32.0 °F 23.0 °F 30.2 °F 93% 29.33 in 0.9 mi NE 11.5 mph - N/A Snow Light Snow
8:50 PM 31 °F - 31 °F 99% 29.34 in 1 mi NE 10.4 mph - - Snow Light Snow
8:50 PM 32.0 °F 23.6 °F 30.2 °F 93% 29.33 in 1.2 mi NE 10.4 mph - N/A Snow Light Snow
9:50 PM 30.2 °F 21.3 °F 30.2 °F 100% 29.30 in 1.6 mi NE 10.4 mph - N/A Snow Light Snow
10:50 PM 30.2 °F 21.3 °F 30.2 °F 100% 29.30 in 1.4 mi NE 10.4 mph - N/A Snow Light Snow
11:50 PM 30 °F - 29 °F 97% 29.30 in 6 mi NE 8.1 mph - - Snow Snow Grains
11:50 PM 30.2 °F 22.6 °F 30.2 °F 100% 29.27 in 6.2 mi NE 8.1 mph - N/A Snow Snow Grains